This demonstration page uses our WeatherBlox Daily Observations layout. Learn more.

Left ArrowRight Arrow

39.08367, -84.50855

Hourly Observations for July 29, 2021

Temp ( °F °C ) Dew Point ( °F °C ) Humidity (%) Winds ( mph kmh ) Pressure ( in mb ) Visibility ( mi km ) Precip ( " mm )
12:53 am 00:53 Clear 73 22.8 70 21.1 90 90 SSW 3 6 29.99 1016 8 13 N/A
1:53 am 01:53 Clear 71 21.7 70 21.1 96 96 N N/A 29.99 1016 7 11 N/A
2:53 am 02:53 Clear 71 21.7 69 20.6 94 94 N N/A 29.99 1016 7 11 N/A
3:53 am 03:53 Clear with Mist and Fog 69 20.6 68 20 96 96 SSW 3 6 29.99 1016 3 4 N/A
4:06 am 04:06 Clear with Mist and Fog 70 21.1 70 21.1 100 100 N N/A 30.00 1016 4 6 N/A
4:24 am 04:24 Clear with Mist and Fog 70 21.1 69 20.6 97 97 S 3 6 29.99 1015 2 3 N/A
4:34 am 04:34 Clear with Mist and Fog 69 20.6 68 20 96 96 N N/A 30.00 1016 4 6 N/A
4:53 am 04:53 Clear with Mist and Fog 70 21.1 69 20.6 97 97 N N/A 30.00 1016 4 6 N/A
5:43 am 05:43 Clear with Mist and Fog 69 20.6 68 20 96 96 N N/A 29.99 1015 2 3 N/A
5:53 am 05:53 Clear with Mist and Fog 69 20.6 69 20.6 100 100 N N/A 29.99 1016 1 2 N/A
6:03 am 06:03 Clear with Mist and Fog 69 20.6 68 20 96 96 N N/A 29.98 1015 3 5 N/A
6:15 am 06:15 Clear with Mist and Fog 69 20.6 68 20 96 96 N N/A 29.98 1015 2 2 N/A
6:19 am 06:19 Mostly Cloudy with Fog 69 20.6 68 20 96 96 N N/A 29.98 1015 0 0 N/A
6:38 am 06:38 Mostly Cloudy with Mist and Fog 70 21.1 69 20.6 97 97 SW 3 6 29.98 1015 1 2 N/A
6:41 am 06:41 Partly Cloudy with Mist and Fog 70 21.1 69 20.6 97 97 WSW 3 6 29.98 1015 3 4 N/A
6:48 am 06:48 Sunny with Mist and Fog 70 21 70 21 100 100 WSW 3 6 29.99 1015 5 8 N/A
6:53 am 06:53 Partly Cloudy with Mist and Fog 70 21.1 69 20.6 97 97 N N/A 29.99 1016 4 6 N/A
7:53 am 07:53 Sunny with Mist and Fog 71 21.7 69 20.6 94 94 N N/A 30.01 1016 6 10 N/A
8:53 am 08:53 Partly Cloudy with Light Rain 73 22.8 71 21.7 94 94 SSW 6 9 30.00 1016 5 8 0.00 0.00
9:53 am 09:53 Sunny with Mist and Fog 77 25 73 22.8 88 88 SSW 9 15 29.96 1015 6 10 0.00 0.00
10:53 am 10:53 Mostly Sunny 82 27.8 74 23.3 77 77 WSW 9 15 29.97 1015 8 13 N/A
11:53 am 11:53 Mostly Sunny 84 28.9 74 23.3 72 72 SSW 10 17 29.97 1015 8 13 N/A
12:53 pm 12:53 Sunny 85 29.4 72 22.2 65 65 WSW 10 17 29.94 1014 9 14 N/A
1:53 pm 13:53 Mostly Sunny 87 30.6 73 22.8 63 63 WSW 12 19 29.93 1013 9 14 N/A
2:53 pm 14:53 Sunny 87 30.6 74 23.3 65 65 SW 10 17 29.92 1013 10 16 N/A
3:53 pm 15:53 Mostly Sunny 89 31.7 74 23.3 61 61 WSW 10 17 29.90 1013 10 16 N/A
4:53 pm 16:53 Partly Cloudy 87 30.6 73 22.8 63 63 WSW 21 33 29.89 1012 10 16 N/A
5:53 pm 17:53 Mostly Cloudy 86 30 74 23.3 67 67 SW 14 22 29.89 1012 8 13 N/A
6:53 pm 18:53 Mostly Cloudy 85 29.4 74 23.3 70 70 SW 13 20 29.87 1012 8 13 N/A
7:53 pm 19:53 Cloudy 84 28.9 75 23.9 74 74 SW 10 17 29.86 1011 8 13 0.00 0.00
8:53 pm 20:53 Mostly Cloudy 85 29.4 74 23.3 70 70 WNW 6 9 29.88 1012 10 16 N/A
9:53 pm 21:53 Cloudy 84 28.9 74 23.3 72 72 NNW 6 9 29.88 1012 10 16 N/A
10:53 pm 22:53 Mostly Cloudy 82 27.8 73 22.8 74 74 NNW 6 9 29.88 1012 10 16 N/A
11:53 pm 23:53 Clear 80 26.7 72 22.2 76 76 NW 6 9 29.89 1012 10 16 N/A

Powered by AerisWeather